GW5223 Weather Reports


time (UTC)temp
F
wind
direction
speed
knots
gust
knots
rain 1hr
in
rain 24hr
in
rain mn
in
humidity
%
barometer
mb
20260505112305 55 192 0.0 0.0 0.00 0.00 0.00 87 1011.3
20260505111804 54 192 0.0 0.0 0.00 0.00 0.00 86 1011.3
20260505111304 54 192 0.0 0.0 0.00 0.00 0.00 87 1011.2
20260505110304 54 192 0.0 0.0 0.00 0.00 0.00 86 1011.2
20260505101804 54 192 0.0 0.0 0.00 0.00 0.00 86 1010.9
20260505101304 53 192 0.0 0.0 0.00 0.00 0.00 85 1010.8
20260505100804 53 192 0.0 0.0 0.00 0.00 0.00 84 1010.6
20260505095804 54 192 0.0 0.0 0.00 0.00 0.00 84 1010.5
20260505095305 54 192 0.0 0.0 0.00 0.00 0.00 84 1010.5
20260505094804 54 192 0.0 0.0 0.00 0.00 0.00 84 1010.5
20260505094304 54 192 0.0 0.0 0.00 0.00 0.00 84 1010.5
20260505093804 54 192 0.0 0.0 0.00 0.00 0.00 83 1010.5
20260505093304 54 192 0.0 0.0 0.00 0.00 0.00 83 1010.5
20260505092804 54 192 0.0 0.0 0.00 0.00 0.00 83 1010.5
20260505091805 55 192 0.0 0.0 0.00 0.00 0.00 82 1010.4
20260505090804 55 192 0.0 0.0 0.00 0.00 0.00 81 1010.4
20260505090304 56 192 0.0 0.0 0.00 0.00 0.00 81 1010.3
20260505085305 56 192 0.0 0.0 0.00 0.00 0.00 81 1010.3
20260505084304 56 192 0.0 0.0 0.00 0.00 0.00 81 1010.4
20260505083806 56 192 0.0 0.0 0.00 0.00 0.00 81 1010.4
20260505083304 56 192 0.0 0.0 0.00 0.00 0.00 81 1010.4
20260505081804 56 192 0.0 0.9 0.00 0.00 0.00 82 1010.4
20260505080804 56 192 0.0 0.9 0.00 0.00 0.00 83 1010.5
20260505080304 56 193 0.0 0.0 0.00 0.00 0.00 83 1010.5
20260505075805 55 193 0.0 1.7 0.00 0.00 0.00 83 1010.5
20260505075305 55 194 0.0 0.9 0.00 0.00 0.00 83 1010.5
20260505074805 55 194 0.0 1.7 0.00 0.00 0.00 83 1010.4
20260505074303 54 196 0.0 0.9 0.00 0.00 0.00 83 1010.3
20260505073804 54 196 0.0 0.9 0.00 0.00 0.00 82 1010.2
20260505073304 54 194 0.0 0.9 0.00 0.00 0.00 82 1010.2
20260505072804 54 196 0.0 0.0 0.00 0.00 0.00 82 1010.2
20260505072305 54 196 0.0 0.0 0.00 0.00 0.00 81 1010.3
20260505071804 55 196 0.0 0.0 0.00 0.00 0.00 81 1010.2
20260505071304 55 196 0.0 0.9 0.00 0.00 0.00 81 1010.2
20260505070804 55 196 0.0 0.0 0.00 0.00 0.00 81 1010.2
20260505070304 55 196 0.0 0.9 0.00 0.00 0.00 81 1010.2
20260505065805 55 180 0.0 0.9 0.00 0.00 0.00 81 1010.2
20260505064805 55 180 0.9 2.6 0.00 0.00 0.00 81 1010.0
20260505064304 55 184 0.9 1.7 0.00 0.00 0.00 80 1010.1
20260505063804 55 164 0.9 2.6 0.00 0.00 0.00 79 1010.0
20260505063304 55 158 0.0 0.9 0.00 0.00 0.00 79 1010.1
20260505062804 55 157 0.0 0.9 0.00 0.00 0.00 79 1010.1
20260505062304 56 157 0.0 0.9 0.00 0.00 0.00 79 1010.2
20260505061805 56 157 0.0 0.0 0.00 0.00 0.00 78 1010.2
20260505061304 56 157 0.0 2.6 0.00 0.00 0.00 78 1010.1
20260505060304 57 161 0.0 0.9 0.00 0.00 0.00 77 1010.2
20260505054305 57 165 0.0 2.6 0.00 0.00 0.00 76 1010.2
20260505053804 57 171 0.0 2.6 0.00 0.00 0.00 76 1010.2
20260505052805 58 184 0.9 1.7 0.00 0.00 0.00 75 1010.3
20260505052304 58 181 0.0 1.7 0.00 0.00 0.00 74 1010.3
20260505051804 58 166 0.0 2.6 0.00 0.00 0.00 74 1010.3
20260505051304 58 180 0.9 2.6 0.00 0.00 0.00 74 1010.4
20260505050804 58 196 0.9 2.6 0.00 0.00 0.00 73 1010.4
20260505050304 59 180 1.7 6.1 0.00 0.00 0.00 73 1010.4
20260505040902 60 179 1.7 6.1 0.00 0.00 0.00 69 1010.4
20260505040305 60 170 2.6 6.1 0.00 0.00 0.00 69 1010.3
20260505035804 60 190 1.7 7.0 0.00 0.00 0.00 68 1010.4
20260505035304 60 174 1.7 2.6 0.00 0.00 0.00 68 1010.4
20260505034304 60 205 2.6 7.0 0.00 0.00 0.00 67 1010.4
20260505033805 60 182 0.9 4.3 0.00 0.00 0.00 66 1010.4
20260505033306 60 179 1.7 5.2 0.00 0.00 0.00 66 1010.4
20260505032804 60 201 0.9 7.0 0.00 0.00 0.00 65 1010.3
20260505032304 60 185 1.7 5.2 0.00 0.00 0.00 65 1010.5
20260505031805 60 178 2.6 6.1 0.00 0.00 0.00 65 1010.6
20260505031305 61 173 1.7 6.1 0.00 0.00 0.00 64 1010.6
20260505030305 61 177 1.7 4.3 0.00 0.00 0.00 63 1010.7
20260505025804 61 169 1.7 4.3 0.00 0.00 0.00 63 1010.7
20260505025305 61 175 1.7 6.1 0.00 0.00 0.00 62 1010.7
20260505024804 61 180 1.7 4.3 0.00 0.00 0.00 62 1010.7
20260505024304 61 188 1.7 2.6 0.00 0.00 0.00 61 1010.8
20260505022805 62 174 0.9 5.2 0.00 0.00 0.00 59 1010.8
20260505022304 62 171 1.7 6.1 0.00 0.00 0.00 59 1010.7
20260505021804 62 172 2.6 7.0 0.00 0.00 0.00 58 1010.8
20260505020804 63 171 1.7 5.2 0.00 0.00 0.00 57 1010.8
20260505020304 63 223 1.7 5.2 0.00 0.00 0.00 56 1010.8
20260505015804 63 186 0.9 5.2 0.00 0.00 0.00 54 1010.8
20260505015305 63 190 0.9 4.3 0.00 0.00 0.00 53 1010.7
20260505014805 63 166 1.7 4.3 0.00 0.00 0.00 53 1010.7
20260505014305 63 180 0.9 2.6 0.00 0.00 0.00 52 1010.7
20260505013805 63 173 2.6 5.2 0.00 0.00 0.00 52 1010.7
20260505013304 63 180 2.6 5.2 0.00 0.00 0.00 52 1010.7
20260505012805 62 183 0.9 2.6 0.00 0.00 0.00 53 1010.6
20260505012304 62 185 1.7 4.3 0.00 0.00 0.00 53 1010.6
20260505011804 62 195 0.9 2.6 0.00 0.00 0.00 53 1010.4
20260505011304 62 175 0.9 2.6 0.00 0.00 0.00 52 1010.4
20260505010804 62 180 0.0 1.7 0.00 0.00 0.00 51 1010.3
20260505010304 63 163 0.0 1.7 0.00 0.00 0.00 51 1010.3
20260505005804 63 206 0.0 0.9 0.00 0.00 0.00 50 1010.2
20260505005304 63 207 0.9 2.6 0.00 0.00 0.00 49 1010.1
20260505004804 63 220 0.9 1.7 0.00 0.00 0.00 49 1010.1
20260505004304 64 166 0.0 1.7 0.00 0.00 0.00 48 1010.1
20260505002804 65 144 0.0 0.9 0.00 0.00 0.00 46 1009.9
20260505002304 65 143 0.9 2.6 0.00 0.00 0.00 46 1009.9
20260505001804 66 141 0.9 2.6 0.00 0.00 0.00 44 1009.9
20260505000804 66 160 0.0 0.9 0.00 0.00 0.00 44 1009.8
20260505000305 67 161 0.0 0.9 0.00 0.00 0.00 42 1009.7
20260504235305 68 187 0.0 2.6 0.00 0.00 0.00 42 1009.7
20260504234806 68 161 0.0 2.6 0.00 0.00 0.00 41 1009.6
20260504234304 68 194 0.9 5.2 0.00 0.00 0.00 41 1009.5
20260504233304 69 184 2.6 7.8 0.00 0.00 0.00 39 1009.4
20260504232805 69 172 1.7 6.1 0.00 0.00 0.00 39 1009.5
20260504232304 70 183 1.7 7.8 0.00 0.00 0.00 39 1009.4
20260504231804 70 215 0.9 5.2 0.00 0.00 0.00 38 1009.4
20260504231305 70 197 1.7 5.2 0.00 0.00 0.00 37 1009.3
20260504230803 71 215 1.7 11.3 0.00 0.00 0.00 36 1009.3
20260504230305 71 236 3.5 10.4 0.00 0.00 0.00 37 1009.3
20260504225804 71 173 0.9 7.8 0.00 0.00 0.00 37 1009.2
20260504225304 72 203 2.6 6.1 0.00 0.00 0.00 36 1009.3
20260504224804 72 269 0.0 2.6 0.00 0.00 0.00 36 1009.2
20260504224304 72 281 1.7 4.3 0.00 0.00 0.00 36 1009.3
20260504223805 72 319 0.9 2.6 0.00 0.00 0.00 37 1009.3
20260504223305 72 289 0.0 7.0 0.00 0.00 0.00 36 1009.3
20260504222804 72 209 0.9 10.4 0.00 0.00 0.00 36 1009.3
20260504222305 72 170 2.6 10.4 0.00 0.00 0.00 35 1009.3
20260504221804 73 179 0.9 4.3 0.00 0.00 0.00 35 1009.3
20260504221304 73 228 0.9 6.1 0.00 0.00 0.00 34 1009.3
20260504220804 73 188 0.9 6.1 0.00 0.00 0.00 34 1009.3
20260504220304 74 176 2.6 6.1 0.00 0.00 0.00 34 1009.3
20260504215803 74 283 1.7 7.8 0.00 0.00 0.00 34 1009.4
20260504215305 74 174 1.7 10.4 0.00 0.00 0.00 32 1009.5
20260504214804 75 189 1.7 6.1 0.00 0.00 0.00 32 1009.5
20260504214304 75 206 1.7 8.7 0.00 0.00 0.00 32 1009.6
20260504213803 76 215 1.7 10.4 0.00 0.00 0.00 31 1009.5
20260504213304 76 242 0.9 6.1 0.00 0.00 0.00 33 1009.5
20260504212804 76 206 0.9 2.6 0.00 0.00 0.00 32 1009.5
20260504212304 76 214 1.7 7.8 0.00 0.00 0.00 32 1009.6
20260504211805 76 173 1.7 5.2 0.00 0.00 0.00 30 1009.6
20260504211304 76 257 0.9 6.1 0.00 0.00 0.00 31 1009.6
20260504210806 76 303 1.7 7.8 0.00 0.00 0.00 31 1009.6
20260504205804 76 239 1.7 10.4 0.00 0.00 0.00 33 1009.7
20260504205304 76 211 1.7 7.0 0.00 0.00 0.00 32 1009.6
20260504204804 76 300 0.9 5.2 0.00 0.00 0.00 32 1009.7
20260504204305 76 326 0.9 5.2 0.00 0.00 0.00 32 1009.6
20260504203806 76 208 4.3 11.3 0.00 0.00 0.00 31 1009.6
20260504203306 76 253 0.9 4.3 0.00 0.00 0.00 33 1009.6
20260504202804 76 188 3.5 10.4 0.00 0.00 0.00 32 1009.6
20260504202305 76 201 2.6 10.4 0.00 0.00 0.00 33 1009.7
20260504201805 76 179 3.5 7.8 0.00 0.00 0.00 33 1009.6
20260504201305 76 247 1.7 6.1 0.00 0.00 0.00 31 1009.7
20260504195804 76 217 1.7 4.3 0.00 0.00 0.00 35 1009.8
20260504195305 76 182 1.7 5.2 0.00 0.00 0.00 34 1009.8
20260504194804 76 272 2.6 7.0 0.00 0.00 0.00 34 1009.9
20260504193804 76 222 0.9 4.3 0.00 0.00 0.00 32 1009.9
20260504193304 76 205 0.9 6.1 0.00 0.00 0.00 33 1010.0
20260504192304 75 305 1.7 5.2 0.00 0.00 0.00 34 1010.1
20260504191804 75 185 2.6 7.8 0.00 0.00 0.00 33 1010.3
20260504190805 75 185 2.6 8.7 0.00 0.00 0.00 34 1010.4
20260504190304 75 176 4.3 7.8 0.00 0.00 0.00 34 1010.4
20260504184804 75 239 1.7 10.4 0.00 0.00 0.00 34 1010.6
20260504184305 75 183 3.5 7.8 0.00 0.00 0.00 34 1010.7
20260504183804 74 234 1.7 6.1 0.00 0.00 0.00 34 1010.8
20260504183304 75 253 2.6 7.0 0.00 0.00 0.00 31 1010.8
20260504182804 75 215 2.6 10.4 0.00 0.00 0.00 34 1011.0
20260504181804 75 170 1.7 5.2 0.00 0.00 0.00 33 1011.1
20260504181304 75 197 1.7 5.2 0.00 0.00 0.00 34 1011.2
20260504180805 75 155 1.7 4.3 0.00 0.00 0.00 33 1011.1
20260504180304 74 180 1.7 4.3 0.00 0.00 0.00 34 1011.3
20260504175805 74 223 1.7 7.0 0.00 0.00 0.00 33 1011.4
20260504175304 74 221 0.9 7.8 0.00 0.00 0.00 36 1011.4
20260504173804 73 189 1.7 7.0 0.00 0.00 0.00 39 1011.6
20260504173304 73 283 1.7 2.6 0.00 0.00 0.00 35 1011.7
20260504172804 73 213 1.7 7.0 0.00 0.00 0.00 38 1011.7
20260504172304 73 293 0.9 4.3 0.00 0.00 0.00 38 1011.7
20260504171805 73 238 1.7 5.2 0.00 0.00 0.00 36 1011.8
20260504171304 73 233 1.7 2.6 0.00 0.00 0.00 36 1011.9
20260504170805 73 254 1.7 5.2 0.00 0.00 0.00 37 1012.0
20260504170305 72 273 1.7 5.2 0.00 0.00 0.00 38 1012.0
20260504160304 70 311 0.9 5.2 0.00 0.00 0.00 41 1013.0
20260504150804 68 211 0.9 5.2 0.00 0.00 0.00 46 1013.5
20260504150304 68 294 2.6 7.8 0.00 0.00 0.00 46 1013.5
20260504140804 65 179 1.7 5.2 0.00 0.00 0.00 53 1013.8
20260504140304 65 202 0.9 6.1 0.00 0.00 0.00 54 1013.8
20260504130804 60 170 0.9 7.0 0.00 0.00 0.00 59 1014.2
20260504130304 60 241 0.9 2.6 0.00 0.00 0.00 61 1014.2
20260504120304 54 224 0.9 10.4 0.00 0.00 0.00 75 1014.5